Tracking 22879 objects as of 22-Apr-2021
HD Live streaming from Space Station
objects crossing your sky now

SL-8 DEB

Track SL-8 DEB now!
10-day predictions


NORAD ID: 11114
Int'l Code: 1978-105D
Perigee: 644.4 km
Apogee: 652.5 km
Inclination: 74.0 °
Period: 97.5 minutes
Semi major axis: 7019 km
RCS: 0.0186 m2 (small)
Launch date: November 16, 1978
Source: Commonwealth of Independent States (former USSR) (CIS)
Launch site: PLESETSK MISSILE AND SPACE COMPLEX (PKMTR)

Note: This is SATELLITE DEBRIS
aabbcc
Your satellite tracking list
Your tracking list is empty




NASA's NSSDC Master Catalog

Two Line Element Set (TLE):
1 11114U 78105D   21111.83825903  .00000704  00000-0  10663-3 0  9993
2 11114  74.0116 318.6641 0005769 328.1543  31.9281 14.76198897249178
Source of the keplerian elements: AFSPC